Printer-friendly version

IAU Minor Planet Center

Minor Planet Center

MPEC 2009-F27 : 2009 FT

The following Minor Planet Electronic Circular may be linked-to from your own Web pages, but must not otherwise be redistributed electronically.


Read MPEC 2009-F26 Read MPEC 2009-F28


M.P.E.C. 2009-F27                                Issued 2009 Mar. 18, 16:02 UT

     The Minor Planet Electronic Circulars contain information on unusual
         minor planets and routine data on comets.  They are published
   on behalf of Commission 20 of the International Astronomical Union by the
          Minor Planet Center, Smithsonian Astrophysical Observatory,
                          Cambridge, MA 02138, U.S.A.

             Prepared using the Tamkin Foundation Computer Network

                              MPC@CFA.HARVARD.EDU
          URL http://www.cfa.harvard.edu/iau/mpc.html  ISSN 1523-6714

                                    2009 FT

Observations:
     K09F00T* C2009 03 17.45365 13 24 16.34 +35 58 17.9          19.2 V EF027703
     K09F00T  C2009 03 17.45851 13 24 15.91 +35 58 32.2          19.8 V EF027703
     K09F00T  C2009 03 17.46329 13 24 15.40 +35 58 46.0          19.8 V EF027703
     K09F00T  C2009 03 17.46811 13 24 15.08 +35 59 00.3          19.9 V EF027703
     K09F00T  C2009 03 17.47550 13 24 14.40 +35 59 20.7          19.5 V EF027703
     K09F00T  C2009 03 17.47741 13 24 14.25 +35 59 26.5          20.3 V EF027703
     K09F00T  C2009 03 17.47933 13 24 14.04 +35 59 32.8          20.3 V EF027703
     K09F00T  C2009 03 17.48124 13 24 13.96 +35 59 38.3          20.1 V EF027703
     K09F00T  C2009 03 17.94895 13 23 35.13 +36 22 31.5          19.6 V EF027A13
     K09F00T  C2009 03 17.95228 13 23 34.39 +36 22 42.1                 EF027B18
     K09F00T  C2009 03 17.95844 13 23 34.22 +36 22 58.4          19.5 V EF027A74
     K09F00T  C2009 03 17.96592 13 23 33.54 +36 23 20.6          19.6 V EF027A74
     K09F00T  C2009 03 17.96721 13 23 33.42 +36 23 25.7          19.5 V EF027A13
     K09F00T  C2009 03 17.97375 13 23 32.82 +36 23 44.2          19.3 V EF027A74
     K09F00T  C2009 03 17.99405 13 23 30.41 +36 24 45.0                 EF027B18
     K09F00T  C2009 03 18.00006 13 23 29.92 +36 25 02.9                 EF027B18
     K09F00T  C2009 03 18.04913 13 23 25.84 +36 27 28.9          19.3 R EF027B04
     K09F00T  C2009 03 18.05743 13 23 25.05 +36 27 53.6          19.3 R EF027B04
     K09F00T  C2009 03 18.06305 13 23 24.51 +36 28 10.2          19.3 R EF027B04
     K09F00T  C2009 03 18.45361 13 22 49.13 +36 47 36.3          19.8 V EF027291
     K09F00T  C2009 03 18.45829 13 22 48.65 +36 47 49.0          19.7 V EF027291
     K09F00T  C2009 03 18.46296 13 22 48.20 +36 48 04.1          19.8 V EF027291

Observer details:
291 LPL/Spacewatch II.  Observer T. H. Bressi.  1.8-m f/2.7 reflector + CCD.
703 Catalina Sky Survey.  Observer R. E. Hill.  Measurers E. C. Beshore,
    A. Boattini, G. J. Garradd, A. R. Gibbs, A. D. Grauer, R. E. Hill,
    R. A. Kowalski, S. M. Larson, R. H. McNaught.  0.68-m Schmidt + CCD.
A13 Observatoire Naef, Marly.  Observer P. Kocher.  0.5-m f/3.3 Hypergraph
    + CCD.
A74 Bergen-Enkheim Observatory.  Observer U. Suessenberger.  0.4-m f/4
    Newtonian reflector.
B04 OAVdA, Saint-Barthelemy.  Observer A. Carbognani.  0.81-m f/7.9 reflector
    + CCD.
B18 Terskol.  Observers M. Andreev, A. Sergeev.  Measurer M. Andreev.  0.6-m
    f/12.8 reflector + CCD.

Orbital elements:
2009 FT                                                  Earth MOID = 0.1213 AU
Epoch 2009 June 18.0 TT = JDT 2455000.5                 MPC
M   2.64869              (2000.0)            P               Q
n   0.51806319     Peri.  220.77410     +0.63727964     +0.72925419
a   1.5353742      Node    90.36358     -0.62638524     +0.67849148
e   0.7122447      Incl.   14.42600     -0.44890556     +0.08853043
P   1.90           H   19.0           G   0.15           U   9
Residuals in seconds of arc
090317 703  0.2-  0.1-    090317 A13  0.1-  0.9+    090318 B04  0.1+  0.1+
090317 703  0.2-  0.1+    090317 B18  1.0+  0.6-    090318 B04  0.0   0.2+
090317 703  1.2-  0.0     090317 A74  0.0   0.3+    090318 B04  0.2-  0.2+
090317 703  0.2+  0.3+    090317 A74  0.1+  0.2+    090318 291  0.1+  0.3+
090317 703  0.0   0.7-    090317 A13  0.5-  0.7+    090318 291  0.2-  0.8-
090317 703  0.2+  0.4-    090317 A74  0.1+  0.5+    090318 291  0.1-  0.4+
090317 703  0.3-  0.3+    090317 B18  0.0   1.1-
090317 703  0.8+  0.3+    090318 B18  0.9+  0.9-

Ephemeris:
2009 FT                  a,e,i = 1.54, 0.71, 14                  q = 0.4418
Date    TT    R. A. (2000) Decl.     Delta      r     Elong.  Phase     V
2009 03 10    13 31.68   +30 25.2    0.637    1.535   139.6    24.8    20.1
2009 03 15    13 27.34   +34 01.9    0.581    1.484   139.4    25.8    19.9
2009 03 20    13 20.32   +38 05.9    0.530    1.433   137.7    27.9    19.6
2009 03 25    13 09.71   +42 35.6    0.485    1.379   134.1    31.3    19.5
2009 03 30    12 54.18   +47 26.0    0.445    1.324   128.7    36.1    19.3
2009 04 04    12 31.77   +52 27.7    0.412    1.266   121.8    42.2    19.2
2009 04 09    11 59.51   +57 24.1    0.384    1.207   113.5    49.5    19.2
2009 04 14    11 13.31   +61 48.0    0.362    1.146   104.1    58.0    19.2
2009 04 19    10 09.51   +64 56.4    0.345    1.084    93.8    67.6    19.2
2009 04 24    08 50.56   +65 55.5    0.333    1.019    82.8    78.3    19.4
2009 04 29    07 29.61   +64 09.9    0.326    0.952    71.0    90.1    19.6

Sonia Keys                   (C) Copyright 2009 MPC           M.P.E.C. 2009-F27

Read MPEC 2009-F26 Read MPEC 2009-F28


Our Web policy. Index to the CBAT/MPC/ICQ pages.


Valid HTML 4.01!